Location: Newark
(15.4608°S, 41.1635°W)
Time: 22:31:50
(UTC+00:00)

Tiros 1 - Visible Passes

Search period start: 30 July 2021 00:00
Search period end: 09 August 2021 00:00
Orbit: 630 x 664 km, 48.4° (Epoch: 30 July)

Date Brightness Start Highest point End Pass type
(mag) Time Alt. Az. Time Alt. Az. Time Alt. Az.
30 Jul 9.7 06:35:10 17° E 06:35:10 17° E 06:36:40 10° ESE visible
30 Jul 8.1 08:12:57 21° W 08:14:51 27° SW 08:18:50 10° SSE visible
31 Jul 9.1 07:01:34 22° SE 07:01:34 22° SE 07:03:17 10° SE visible
31 Jul 9.2 08:40:46 10° SW 08:41:07 10° SW 08:41:28 10° SW visible
01 Aug 9.2 07:27:33 16° S 07:27:33 16° S 07:28:42 10° SSE visible
